Location: Unspecified
(33.4270°N, 0.0000°E)
Time: 09:25:20
(UTC+00:00)

CZ-4 R/B DEB - Visible Passes

Search period start: 04 April 2026 00:00
Search period end: 14 April 2026 00:00
Orbit: 819 x 927 km, 99.0° (Epoch: 28 November)

Date Brightness Start Highest point End Pass type
(mag) Time Alt. Az. Time Alt. Az. Time Alt. Az.
4 Apr ? 04:09:41 10° NNE 04:14:41 38° E 04:19:44 10° SSE visible
5 Apr ? 04:04:30 10° NE 04:09:22 33° E 04:14:18 10° SSE visible
6 Apr ? 03:59:21 10° NE 04:04:03 30° E 04:08:49 10° SSE visible
7 Apr ? 03:54:13 10° NE 03:58:44 27° E 04:03:20 10° SSE visible
8 Apr ? 03:49:06 10° NE 03:53:25 24° E 03:57:47 10° SSE visible
9 Apr ? 03:44:02 10° NE 03:48:06 21° E 03:52:12 10° SE visible
10 Apr ? 03:39:01 10° NE 03:42:46 19° E 03:46:34 10° SE visible
11 Apr ? 03:34:02 10° NE 03:37:27 17° E 03:40:53 10° SE visible
12 Apr ? 03:29:08 10° ENE 03:32:07 15° E 03:35:06 10° SE visible
13 Apr ? 03:24:22 10° ENE 03:26:46 13° E 03:29:12 10° ESE visible
13 Apr ? 05:02:48 10° N 05:08:13 66° WNW 05:13:45 10° SSW visible
